STARLINK-11255 [DTC] (60730 NORAD) Tracking and Keplerian Element Data

This shows tracking and keplerian element data for the satellite.

Feedback or suggestion? Click here.




ElementValue
Catalog60730
NameSTARLINK-11255 [DTC]
Epoch Orbit829
Epoch Day286.80249982
Epoch Year2024
RAAN124.3532
Inclination53.1589
Eccentricity5.22E-05
Argument of Perigee66.5101
Mean Anonmoly293.5972
Mean Motion15.69726074
Decay Rate4.536E-05
L11 60730U 24152L 24286.80249982 .00004536 00000+0 42242-4 0 9999
L22 60730 53.1589 124.3532 0000522 66.5101 293.5972 15.69726074 8290



Live tracking and technical data element details for STARLINK-11255 [DTC] (NORAD 60730). STARLINK-11255 [DTC] can be tracked NOW for your location showing map with azimuth and elevation plus other details from your city location.







IsCatalogInMostPopularTable: catalog: 60730, numindb: 8
Update: records affected: 1



GetName: 60730 STARLINK-11255 [DTC]

Hit Count: updated at: Wed, 04 Dec 2024 19:38:30 GMT